User: anonymous   Login
Location: Parc des �les de St-Timoth�e
(45.2924°N, 74.0481°W)
Time: 16:45:41
(UTC-05:00)
Language:

Cosmos 2173 Rocket - Orbit

View from above orbital plane
View from above orbital plane
View from above satellite
View from above satellite

Ground track
Ground track

The orbit data is extracted from the following two-line orbital elements,

1 21797U 91081B   14352.17636120  .00000116  00000-0  10048-3 0  5750
2 21797 082.9531 019.4216 0039419 122.9542 300.1768 13.77307801158859
Epoch (UTC): 18 December 2014 04:13:57
Eccentricity: 0.0039419
inclination: 82.9531°
perigee height: 944 km
apogee height: 1002 km
right ascension of ascending node: 19.4216°
argument of perigee: 122.9542°
revolutions per day: 13.77307801
mean anomaly at epoch: 300.1768°
orbit number at epoch: 15885

The dashed part of the orbit path shows where the satellite is in the earth's shadow,  

DLR